| time (UTC) | temp F | wind direction | speed MPH | gust MPH | rain 1hr in | rain 24hr in | rain mn in | humidity % | barometer mb |
| 20260508100004 | 57 | 287 | 2.0 | 4.0 | 0.00 | 0.01 | 0.01 | 63 | 1016.2 |
| 20260508095617 | 57 | 290 | 2.0 | 4.0 | 0.00 | 0.01 | 0.01 | 62 | 1016.2 |
| 20260508094503 | 57 | 289 | 2.0 | 4.0 | 0.00 | 0.01 | 0.01 | 63 | 1016.1 |
| 20260508093603 | 57 | 276 | 2.0 | 4.0 | 0.00 | 0.01 | 0.01 | 67 | 1016.1 |
| 20260508092703 | 55 | 287 | 2.0 | 4.0 | 0.00 | 0.01 | 0.01 | 67 | 1016.1 |
| 20260508091803 | 55 | 287 | 2.0 | 4.0 | 0.00 | 0.01 | 0.01 | 68 | 1016.0 |
| 20260508090903 | 55 | 278 | 1.0 | 4.0 | 0.00 | 0.01 | 0.01 | 70 | 1016.0 |
| 20260508090003 | 54 | 291 | 1.0 | 3.0 | 0.00 | 0.01 | 0.01 | 71 | 1015.7 |
| 20260508085617 | 54 | 290 | 1.0 | 3.0 | 0.00 | 0.01 | 0.01 | 71 | 1015.7 |
| 20260508084503 | 55 | 287 | 1.0 | 4.0 | 0.00 | 0.01 | 0.01 | 71 | 1015.9 |
| 20260508083603 | 53 | 288 | 2.0 | 4.0 | 0.00 | 0.01 | 0.01 | 73 | 1015.8 |
| 20260508082703 | 53 | 270 | 2.0 | 4.0 | 0.00 | 0.01 | 0.01 | 75 | 1015.8 |
| 20260508081803 | 53 | 279 | 2.0 | 6.0 | 0.00 | 0.01 | 0.01 | 74 | 1015.7 |
| 20260508080903 | 53 | 275 | 2.0 | 7.0 | 0.00 | 0.01 | 0.01 | 75 | 1015.6 |
| 20260508080003 | 53 | 284 | 2.0 | 6.0 | 0.00 | 0.01 | 0.01 | 76 | 1015.5 |
| 20260508075403 | 53 | 289 | 2.0 | 6.0 | 0.00 | 0.01 | 0.01 | 77 | 1015.5 |
| 20260508074503 | 52 | 281 | 2.0 | 4.0 | 0.00 | 0.01 | 0.01 | 78 | 1015.7 |
| 20260508073603 | 52 | 269 | 1.0 | 4.0 | 0.00 | 0.01 | 0.01 | 82 | 1015.7 |
| 20260508072703 | 51 | 273 | 1.0 | 4.0 | 0.00 | 0.01 | 0.01 | 82 | 1015.6 |
| 20260508071803 | 51 | 288 | 1.0 | 4.0 | 0.00 | 0.01 | 0.01 | 82 | 1015.4 |
| 20260508070903 | 51 | 316 | 1.0 | 3.0 | 0.00 | 0.01 | 0.01 | 84 | 1015.2 |
| 20260508070218 | 51 | 303 | 1.0 | 3.0 | 0.00 | 0.01 | 0.01 | 84 | 1015.1 |
| 20260508065618 | 51 | 295 | 1.0 | 3.0 | 0.00 | 0.01 | 0.01 | 85 | 1015.1 |
| 20260508064504 | 50 | 310 | 1.0 | 2.0 | 0.00 | 0.01 | 0.01 | 86 | 1014.7 |
| 20260508063816 | 50 | 316 | 1.0 | 2.0 | 0.00 | 0.01 | 0.01 | 86 | 1015.1 |
| 20260508062703 | 49 | 311 | 1.0 | 3.0 | 0.01 | 0.01 | 0.01 | 86 | 1015.0 |
| 20260508061803 | 49 | 288 | 0.0 | 2.0 | 0.01 | 0.01 | 0.01 | 86 | 1014.9 |
| 20260508060903 | 49 | 309 | 1.0 | 3.0 | 0.01 | 0.01 | 0.01 | 86 | 1014.7 |
| 20260508060004 | 49 | 314 | 1.0 | 3.0 | 0.01 | 0.01 | 0.01 | 86 | 1014.7 |
| 20260508055617 | 49 | 317 | 1.0 | 2.0 | 0.01 | 0.01 | 0.01 | 86 | 1014.6 |
| 20260508054503 | 49 | 302 | 0.0 | 1.0 | 0.01 | 0.01 | 0.01 | 86 | 1014.5 |
| 20260508053603 | 49 | 288 | 1.0 | 3.0 | 0.00 | 0.00 | 0.00 | 85 | 1014.3 |
| 20260508052703 | 49 | 302 | 0.0 | 3.0 | 0.00 | 0.00 | 0.00 | 85 | 1014.3 |
| 20260508051803 | 49 | 296 | 1.0 | 3.0 | 0.00 | 0.00 | 0.00 | 85 | 1014.2 |
| 20260508050903 | 49 | 295 | 1.0 | 2.0 | 0.00 | 0.00 | 0.00 | 84 | 1014.2 |
| 20260508050004 | 49 | 290 | 1.0 | 3.0 | 0.00 | 0.00 | 0.00 | 83 | 1014.4 |
| 20260508045403 | 49 | 291 | 1.0 | 3.0 | 0.00 | 0.00 | 0.00 | 82 | 1013.9 |
| 20260508044503 | 49 | 298 | 1.0 | 4.0 | 0.00 | 0.00 | 0.00 | 82 | 1013.9 |
| 20260508043603 | 49 | 292 | 2.0 | 4.0 | 0.00 | 0.00 | 0.00 | 82 | 1013.9 |
| 20260508042703 | 49 | 289 | 2.0 | 4.0 | 0.00 | 0.00 | 0.00 | 82 | 1013.9 |
| 20260508041803 | 49 | 296 | 1.0 | 4.0 | 0.00 | 0.00 | 0.00 | 81 | 1013.8 |
| 20260508040903 | 49 | 298 | 1.0 | 3.0 | 0.00 | 0.00 | 0.00 | 81 | 1013.8 |
| 20260508040003 | 49 | 314 | 1.0 | 4.0 | 0.00 | 0.00 | 0.00 | 81 | 1013.8 |
| 20260508035403 | 49 | 308 | 1.0 | 3.0 | 0.00 | 0.00 | 0.00 | 81 | 1013.6 |
| 20260508034503 | 49 | 299 | 1.0 | 3.0 | 0.00 | 0.00 | 0.00 | 81 | 1013.7 |
| 20260508033603 | 49 | 323 | 1.0 | 4.0 | 0.00 | 0.00 | 0.00 | 81 | 1013.7 |
| 20260508032703 | 49 | 307 | 1.0 | 2.0 | 0.00 | 0.00 | 0.00 | 81 | 1013.8 |
| 20260508031803 | 49 | 301 | 2.0 | 4.0 | 0.00 | 0.00 | 0.00 | 81 | 1013.6 |
| 20260508030903 | 49 | 301 | 2.0 | 4.0 | 0.00 | 0.00 | 0.00 | 80 | 1013.7 |
| 20260508030003 | 49 | 298 | 1.0 | 4.0 | 0.00 | 0.00 | 0.00 | 79 | 1013.5 |
| 20260508025403 | 50 | 296 | 2.0 | 7.0 | 0.00 | 0.00 | 0.00 | 78 | 1013.5 |
| 20260508024503 | 49 | 296 | 1.0 | 4.0 | 0.00 | 0.00 | 0.00 | 76 | 1013.6 |
| 20260508023603 | 49 | 282 | 1.0 | 4.0 | 0.00 | 0.00 | 0.00 | 76 | 1013.6 |
| 20260508022703 | 49 | 290 | 1.0 | 4.0 | 0.00 | 0.00 | 0.00 | 76 | 1013.6 |
| 20260508021803 | 49 | 298 | 1.0 | 4.0 | 0.00 | 0.00 | 0.00 | 77 | 1013.6 |
| 20260508020903 | 49 | 301 | 1.0 | 3.0 | 0.00 | 0.00 | 0.00 | 77 | 1013.5 |
| 20260508020004 | 49 | 317 | 1.0 | 3.0 | 0.00 | 0.00 | 0.00 | 78 | 1013.5 |
| 20260508015403 | 49 | 313 | 1.0 | 2.0 | 0.00 | 0.00 | 0.00 | 78 | 1013.4 |
| 20260508014504 | 50 | 305 | 1.0 | 4.0 | 0.00 | 0.00 | 0.00 | 78 | 1013.5 |
| 20260508013603 | 50 | 289 | 1.0 | 4.0 | 0.00 | 0.00 | 0.00 | 77 | 1013.5 |
| 20260508012918 | 50 | 288 | 1.0 | 4.0 | 0.00 | 0.00 | 0.00 | 77 | 1013.8 |
| 20260508011803 | 50 | 299 | 0.0 | 2.0 | 0.00 | 0.00 | 0.00 | 77 | 1013.9 |
| 20260508010903 | 50 | 291 | 1.0 | 3.0 | 0.00 | 0.00 | 0.00 | 76 | 1014.0 |
| 20260508010218 | 50 | 287 | 1.0 | 4.0 | 0.00 | 0.00 | 0.00 | 76 | 1013.9 |
| 20260508005403 | 50 | 291 | 1.0 | 4.0 | 0.00 | 0.00 | 0.00 | 76 | 1013.6 |
| 20260508004503 | 50 | 296 | 1.0 | 3.0 | 0.00 | 0.00 | 0.00 | 76 | 1013.8 |
| 20260508003603 | 50 | 278 | 1.0 | 4.0 | 0.00 | 0.00 | 0.00 | 76 | 1013.7 |
| 20260508002703 | 50 | 297 | 1.0 | 4.0 | 0.00 | 0.00 | 0.00 | 77 | 1013.9 |
| 20260508002017 | 50 | 294 | 0.0 | 2.0 | 0.00 | 0.00 | 0.00 | 77 | 1013.8 |
| 20260508000903 | 50 | 302 | 1.0 | 3.0 | 0.00 | 0.00 | 0.00 | 77 | 1013.8 |
| 20260508000219 | 50 | 295 | 1.0 | 3.0 | 0.00 | 0.00 | 0.00 | 76 | 1013.7 |
| 20260507235403 | 50 | 299 | 1.0 | 2.0 | 0.00 | 0.00 | 0.00 | 75 | 1013.8 |
| 20260507234503 | 49 | 295 | 1.0 | 2.0 | 0.00 | 0.00 | 0.00 | 75 | 1013.6 |
| 20260507233818 | 49 | 296 | 1.0 | 2.0 | 0.00 | 0.00 | 0.00 | 75 | 1013.4 |
| 20260507232703 | 49 | 325 | 0.0 | 2.0 | 0.00 | 0.00 | 0.00 | 76 | 1013.5 |
| 20260507231803 | 49 | 322 | 1.0 | 3.0 | 0.00 | 0.00 | 0.00 | 76 | 1013.6 |
| 20260507230903 | 49 | 308 | 1.0 | 3.0 | 0.00 | 0.00 | 0.00 | 77 | 1013.4 |
| 20260507230217 | 49 | 313 | 1.0 | 2.0 | 0.00 | 0.00 | 0.00 | 77 | 1013.5 |
| 20260507225403 | 49 | 343 | 1.0 | 2.0 | 0.00 | 0.00 | 0.00 | 77 | 1013.6 |
| 20260507224504 | 49 | 27 | 0.0 | 2.0 | 0.00 | 0.00 | 0.00 | 77 | 1013.5 |
| 20260507223603 | 50 | 301 | 1.0 | 6.0 | 0.00 | 0.00 | 0.00 | 76 | 1013.5 |
| 20260507222703 | 50 | 292 | 0.0 | 3.0 | 0.00 | 0.00 | 0.00 | 76 | 1013.4 |
| 20260507221803 | 50 | 318 | 0.0 | 2.0 | 0.00 | 0.00 | 0.00 | 75 | 1013.5 |
| 20260507220903 | 50 | 301 | 0.0 | 2.0 | 0.00 | 0.00 | 0.00 | 73 | 1013.5 |
| 20260507220003 | 51 | 306 | 0.0 | 3.0 | 0.00 | 0.00 | 0.00 | 73 | 1013.5 |
| 20260507215618 | 51 | 290 | 0.0 | 3.0 | 0.00 | 0.00 | 0.00 | 72 | 1013.4 |
| 20260507214718 | 51 | 252 | 1.0 | 3.0 | 0.00 | 0.00 | 0.00 | 72 | 1013.5 |
| 20260507213603 | 51 | 328 | 0.0 | 2.0 | 0.00 | 0.00 | 0.00 | 72 | 1013.5 |
| 20260507212703 | 51 | 345 | 0.0 | 2.0 | 0.00 | 0.00 | 0.00 | 71 | 1013.3 |
| 20260507211803 | 51 | 31 | 0.0 | 2.0 | 0.00 | 0.00 | 0.00 | 70 | 1013.3 |
| 20260507210903 | 51 | 290 | 0.0 | 1.0 | 0.00 | 0.00 | 0.00 | 69 | 1013.3 |
| 20260507210003 | 51 | 315 | 1.0 | 2.0 | 0.00 | 0.00 | 0.00 | 69 | 1013.2 |
| 20260507205403 | 51 | 341 | 0.0 | 2.0 | 0.00 | 0.00 | 0.00 | 69 | 1013.6 |
| 20260507204504 | 52 | 309 | 0.0 | 1.0 | 0.00 | 0.00 | 0.00 | 69 | 1013.2 |
| 20260507203603 | 52 | 309 | 0.0 | 1.0 | 0.00 | 0.00 | 0.00 | 68 | 1013.3 |
| 20260507202703 | 52 | 313 | 0.0 | 2.0 | 0.00 | 0.00 | 0.00 | 67 | 1013.2 |
| 20260507201803 | 52 | 315 | 0.0 | 1.0 | 0.00 | 0.00 | 0.00 | 67 | 1013.2 |
| 20260507200903 | 52 | 312 | 0.0 | 1.0 | 0.00 | 0.00 | 0.00 | 66 | 1013.0 |
| 20260507200003 | 53 | 314 | 0.0 | 2.0 | 0.00 | 0.00 | 0.00 | 65 | 1012.9 |
| 20260507195403 | 53 | 298 | 1.0 | 2.0 | 0.00 | 0.00 | 0.00 | 65 | 1013.0 |
| 20260507194503 | 53 | 300 | 1.0 | 3.0 | 0.00 | 0.00 | 0.00 | 64 | 1013.1 |
| 20260507193603 | 53 | 302 | 1.0 | 2.0 | 0.00 | 0.00 | 0.00 | 64 | 1012.8 |
| 20260507192703 | 53 | 301 | 0.0 | 2.0 | 0.00 | 0.00 | 0.00 | 64 | 1012.7 |
| 20260507192017 | 53 | 318 | 0.0 | 2.0 | 0.00 | 0.00 | 0.00 | 64 | 1013.0 |
| 20260507190903 | 53 | 314 | 0.0 | 2.0 | 0.00 | 0.00 | 0.00 | 63 | 1012.8 |
| 20260507190004 | 53 | 305 | 0.0 | 1.0 | 0.00 | 0.00 | 0.00 | 62 | 1012.9 |
| 20260507185403 | 54 | 300 | 0.0 | 2.0 | 0.00 | 0.00 | 0.00 | 61 | 1012.7 |
| 20260507184504 | 54 | 288 | 0.0 | 2.0 | 0.00 | 0.00 | 0.00 | 61 | 1012.8 |
| 20260507183603 | 54 | 293 | 1.0 | 2.0 | 0.00 | 0.00 | 0.00 | 60 | 1012.7 |
| 20260507182703 | 54 | 309 | 1.0 | 6.0 | 0.00 | 0.00 | 0.00 | 59 | 1012.6 |
| 20260507181803 | 55 | 299 | 1.0 | 4.0 | 0.00 | 0.00 | 0.00 | 58 | 1012.7 |
| 20260507180903 | 56 | 304 | 2.0 | 4.0 | 0.00 | 0.00 | 0.00 | 57 | 1012.5 |
| 20260507180004 | 56 | 305 | 2.0 | 7.0 | 0.00 | 0.00 | 0.00 | 57 | 1012.5 |
| 20260507175403 | 56 | 309 | 2.0 | 7.0 | 0.00 | 0.00 | 0.00 | 57 | 1012.7 |
| 20260507174718 | 57 | 308 | 2.0 | 6.0 | 0.00 | 0.00 | 0.00 | 59 | 1012.6 |
| 20260507173603 | 56 | 292 | 1.0 | 7.0 | 0.00 | 0.00 | 0.00 | 59 | 1012.5 |
| 20260507172703 | 56 | 298 | 2.0 | 6.0 | 0.00 | 0.00 | 0.00 | 59 | 1012.7 |
| 20260507172018 | 56 | 292 | 2.0 | 6.0 | 0.00 | 0.00 | 0.00 | 60 | 1012.8 |
| 20260507170903 | 57 | 283 | 2.0 | 4.0 | 0.00 | 0.00 | 0.00 | 60 | 1012.8 |
| 20260507170003 | 57 | 281 | 2.0 | 4.0 | 0.00 | 0.00 | 0.00 | 59 | 1012.9 |
| 20260507165403 | 56 | 279 | 2.0 | 6.0 | 0.00 | 0.00 | 0.00 | 61 | 1013.0 |
| 20260507164503 | 57 | 280 | 2.0 | 6.0 | 0.00 | 0.00 | 0.00 | 60 | 1013.1 |
| 20260507163603 | 57 | 281 | 3.0 | 6.0 | 0.00 | 0.00 | 0.00 | 60 | 1012.6 |
| 20260507162703 | 57 | 293 | 2.0 | 6.0 | 0.00 | 0.00 | 0.00 | 60 | 1012.9 |
| 20260507161803 | 56 | 298 | 2.0 | 4.0 | 0.00 | 0.00 | 0.00 | 61 | 1013.0 |
| 20260507160903 | 55 | 286 | 2.0 | 7.0 | 0.00 | 0.00 | 0.00 | 63 | 1012.9 |
| 20260507160003 | 56 | 295 | 1.0 | 6.0 | 0.00 | 0.00 | 0.00 | 62 | 1012.9 |
| 20260507155403 | 56 | 296 | 1.0 | 4.0 | 0.00 | 0.00 | 0.00 | 62 | 1013.0 |
| 20260507154718 | 56 | 293 | 1.0 | 6.0 | 0.00 | 0.00 | 0.00 | 61 | 1012.9 |
| 20260507153817 | 56 | 305 | 2.0 | 6.0 | 0.00 | 0.00 | 0.00 | 61 | 1012.8 |
| 20260507152703 | 56 | 294 | 2.0 | 6.0 | 0.00 | 0.00 | 0.00 | 61 | 1013.3 |
| 20260507151803 | 56 | 289 | 2.0 | 9.0 | 0.00 | 0.00 | 0.00 | 59 | 1012.9 |
| 20260507150903 | 56 | 306 | 2.0 | 7.0 | 0.00 | 0.00 | 0.00 | 60 | 1013.2 |
| 20260507150004 | 56 | 297 | 2.0 | 6.0 | 0.00 | 0.00 | 0.00 | 61 | 1013.2 |
| 20260507145618 | 56 | 300 | 2.0 | 6.0 | 0.00 | 0.00 | 0.00 | 62 | 1013.3 |
| 20260507144503 | 55 | 304 | 1.0 | 3.0 | 0.00 | 0.00 | 0.00 | 63 | 1013.1 |
| 20260507143603 | 54 | 297 | 1.0 | 4.0 | 0.00 | 0.00 | 0.00 | 66 | 1013.2 |
| 20260507142703 | 53 | 291 | 2.0 | 3.0 | 0.00 | 0.00 | 0.00 | 70 | 1013.4 |
| 20260507141803 | 53 | 294 | 1.0 | 3.0 | 0.00 | 0.00 | 0.00 | 70 | 1013.5 |
| 20260507141117 | 53 | 298 | 2.0 | 3.0 | 0.00 | 0.00 | 0.00 | 68 | 1013.5 |
| 20260507140004 | 53 | 287 | 1.0 | 3.0 | 0.00 | 0.00 | 0.00 | 65 | 1013.7 |
| 20260507135618 | 53 | 291 | 1.0 | 4.0 | 0.00 | 0.00 | 0.00 | 66 | 1013.7 |
| 20260507134503 | 53 | 302 | 1.0 | 3.0 | 0.00 | 0.00 | 0.00 | 68 | 1013.7 |
| 20260507133603 | 53 | 301 | 1.0 | 3.0 | 0.00 | 0.00 | 0.00 | 67 | 1013.7 |
| 20260507132917 | 53 | 296 | 1.0 | 3.0 | 0.00 | 0.00 | 0.00 | 66 | 1013.9 |
| 20260507131803 | 54 | 292 | 1.0 | 3.0 | 0.00 | 0.00 | 0.00 | 66 | 1013.8 |
| 20260507131118 | 54 | 294 | 1.0 | 3.0 | 0.00 | 0.00 | 0.00 | 66 | 1014.0 |
| 20260507130218 | 54 | 293 | 1.0 | 4.0 | 0.00 | 0.00 | 0.00 | 64 | 1014.1 |
| 20260507125403 | 54 | 289 | 2.0 | 4.0 | 0.00 | 0.00 | 0.00 | 62 | 1014.0 |
| 20260507124503 | 54 | 292 | 2.0 | 4.0 | 0.00 | 0.00 | 0.00 | 63 | 1014.0 |
| 20260507123603 | 54 | 296 | 2.0 | 7.0 | 0.00 | 0.00 | 0.00 | 59 | 1013.8 |
| 20260507122705 | 55 | 292 | 2.0 | 6.0 | 0.00 | 0.00 | 0.00 | 56 | 1014.0 |
| 20260507122018 | 56 | 285 | 3.0 | 7.0 | 0.00 | 0.00 | 0.00 | 54 | 1013.8 |
| 20260507120903 | 56 | 296 | 2.0 | 6.0 | 0.00 | 0.00 | 0.00 | 55 | 1013.5 |
| 20260507120004 | 56 | 291 | 2.0 | 6.0 | 0.00 | 0.00 | 0.00 | 54 | 1013.6 |
| 20260507115403 | 56 | 275 | 3.0 | 7.0 | 0.00 | 0.00 | 0.00 | 56 | 1013.8 |
| 20260507114503 | 56 | 286 | 3.0 | 7.0 | 0.00 | 0.00 | 0.00 | 54 | 1013.7 |
| 20260507113817 | 57 | 298 | 2.0 | 7.0 | 0.00 | 0.00 | 0.00 | 54 | 1013.8 |
| 20260507112703 | 57 | 301 | 2.0 | 6.0 | 0.00 | 0.00 | 0.00 | 55 | 1013.8 |
| 20260507111803 | 57 | 278 | 2.0 | 8.0 | 0.00 | 0.00 | 0.00 | 56 | 1013.6 |
| 20260507110903 | 56 | 300 | 3.0 | 8.0 | 0.00 | 0.00 | 0.00 | 57 | 1013.7 |
| 20260507110217 | 55 | 309 | 3.0 | 8.0 | 0.00 | 0.00 | 0.00 | 56 | 1013.9 |
| 20260507105403 | 56 | 281 | 2.0 | 9.0 | 0.00 | 0.00 | 0.00 | 58 | 1013.8 |
| 20260507104504 | 55 | 284 | 2.0 | 9.0 | 0.00 | 0.00 | 0.00 | 59 | 1013.8 |
| 20260507103817 | 54 | 287 | 2.0 | 7.0 | 0.00 | 0.00 | 0.00 | 61 | 1014.0 |
| 20260507102703 | 54 | 296 | 3.0 | 6.0 | 0.00 | 0.00 | 0.00 | 61 | 1014.0 |
| 20260507101803 | 55 | 303 | 1.0 | 6.0 | 0.00 | 0.00 | 0.00 | 60 | 1013.9 |
| 20260507100903 | 55 | 303 | 2.0 | 7.0 | 0.00 | 0.00 | 0.00 | 60 | 1013.8 |